START_TIME,STEP,MOV.,M15,t_acc.,M20,t_acc.
1981-08-27 00:01:08.740 ,0,0,0.,24.0,0.,24.0
1981-08-27 00:01:32.740 ,0,0,0.,24.0,0.,24.0
1981-08-27 00:01:56.740 ,4,1,0.,24.0,0.,24.0
1981-08-27 00:02:20.740 ,4,0,0.,24.0,0.,24.0
1981-08-27 00:02:44.740 ,5,1,0.,24.0,0.,24.0
1981-08-27 00:03:08.740 ,5,0,0.,24.0,0.,24.0
1981-08-27 00:03:32.740 ,6,1,0.,24.0,0.,24.0
1981-08-27 00:03:56.740 ,6,0,0.,24.0,0.,24.0
1981-08-27 00:04:20.740 ,7,1,0.,24.0,0.,24.0
1981-08-27 00:04:44.740 ,7,0,0.,24.0,0.,24.0
1981-08-27 00:05:08.740 ,7,1,0.,24.0,0.,24.0
1981-08-27 00:05:32.740 ,7,0,0.,24.0,0.,24.0
1981-08-27 00:05:56.740 ,6,1,0.,24.0,0.,24.0
1981-08-27 00:06:20.740 ,6,0,0.,24.0,0.,24.0
1981-08-27 00:06:44.740 ,5,1,0.,24.0,0.,24.0
1981-08-27 00:07:08.740 ,5,0,0.,24.0,0.,24.0
1981-08-27 00:07:32.740 ,4,1,0.,24.0,0.,24.0
1981-08-27 00:07:56.740 ,4,0,0.,24.0,0.,24.0
1981-08-27 00:08:20.740 ,3,1,0.,24.0,0.,24.0
1981-08-27 00:08:44.740 ,3,0,0.,24.0,0.,24.0
1981-08-27 00:09:08.740 ,2,1,0.,24.0,0.,24.0
1981-08-27 00:09:32.740 ,2,0,0.,24.0,0.,24.0
1981-08-27 00:09:56.740 ,1,1,0.,24.0,0.,24.0
1981-08-27 00:10:20.740 ,1,0,0.,24.0,0.,24.0
1981-08-27 00:10:44.740 ,0,1,0.,24.0,0.,24.0
1981-08-27 00:11:08.740 ,0,0,0.,24.0,0.,24.0
1981-08-27 00:11:32.740 ,0,1,0.,24.0,0.,24.0
1981-08-27 00:11:56.740 ,0,0,0.,24.0,0.,24.0
1981-08-27 00:12:20.740 ,1,1,0.,24.0,0.,24.0
1981-08-27 00:12:44.740 ,1,0,0.,24.0,0.,24.0
1981-08-27 00:13:08.740 ,2,1,0.,24.0,0.,24.0
1981-08-27 00:13:32.740 ,2,0,0.,24.0,0.,24.0
1981-08-27 00:13:56.740 ,3,1,0.,24.0,0.,24.0
1981-08-27 00:14:20.740 ,3,0,0.,24.0,0.,24.0
1981-08-27 00:14:44.740 ,4,1,0.,24.0,0.,24.0
1981-08-27 00:15:08.740 ,4,0,0.,24.0,0.,24.0
1981-08-27 00:15:32.740 ,5,1,0.,24.0,0.,24.0
1981-08-27 00:15:56.740 ,5,0,0.,24.0,0.,24.0
1981-08-27 00:16:20.740 ,6,1,0.,24.0,0.,24.0
1981-08-27 00:16:44.740 ,6,0,0.,24.0,0.,24.0
1981-08-27 00:17:08.740 ,7,1,0.,24.0,0.,24.0
1981-08-27 00:17:32.740 ,7,0,0.,24.0,0.,24.0
1981-08-27 00:17:56.740 ,7,1,0.,24.0,0.,24.0
1981-08-27 00:18:20.740 ,7,0,0.,24.0,0.,24.0
1981-08-27 00:18:44.740 ,6,1,0.,24.0,0.,24.0
1981-08-27 00:19:08.740 ,6,0,0.,24.0,0.,24.0
1981-08-27 00:19:32.740 ,5,1,0.,24.0,0.,24.0
1981-08-27 00:19:56.740 ,5,0,0.,24.0,0.,24.0
1981-08-27 00:20:20.740 ,4,1,0.,24.0,0.,24.0
1981-08-27 00:20:44.740 ,4,0,0.,24.0,0.,24.0
1981-08-27 00:21:08.740 ,3,1,0.,24.0,0.,24.0
1981-08-27 00:21:32.740 ,3,0,0.,24.0,0.,24.0
1981-08-27 00:21:56.740 ,2,1,0.,24.0,0.,24.0
1981-08-27 00:22:20.740 ,2,0,0.,24.0,0.,24.0
1981-08-27 00:22:44.740 ,1,1,0.,24.0,0.,24.0
1981-08-27 00:23:08.740 ,1,0,0.,24.0,0.,24.0
1981-08-27 00:23:32.740 ,0,1,0.,24.0,0.,24.0
1981-08-27 00:23:56.740 ,0,0,0.,24.0,0.,24.0
1981-08-27 00:24:20.740 ,0,1,0.,24.0,0.,24.0
1981-08-27 00:24:44.740 ,0,0,0.,24.0,0.,24.0
1981-08-27 00:25:08.740 ,1,1,0.,24.0,0.,24.0
1981-08-27 00:25:32.740 ,1,0,0.,24.0,0.,24.0
1981-08-27 00:25:56.740 ,2,1,0.,24.0,0.,24.0
1981-08-27 00:26:20.740 ,2,0,0.,24.0,0.,24.0
1981-08-27 00:26:44.740 ,3,1,0.,24.0,0.,24.0
1981-08-27 00:27:08.740 ,3,0,0.,24.0,0.,24.0
1981-08-27 00:27:32.740 ,4,1,0.,24.0,0.,24.0
1981-08-27 00:27:56.740 ,4,0,0.,24.0,0.,24.0
1981-08-27 00:28:20.740 ,5,1,0.,24.0,0.,24.0
1981-08-27 00:28:44.740 ,5,0,0.,24.0,0.,24.0
1981-08-27 00:29:08.740 ,6,1,0.,24.0,0.,24.0
1981-08-27 00:29:32.740 ,6,0,0.,24.0,0.,24.0
1981-08-27 00:29:56.740 ,7,1,0.,24.0,0.,24.0
1981-08-27 00:30:20.740 ,7,0,0.,24.0,0.,24.0
1981-08-27 00:30:44.740 ,7,1,0.,24.0,0.,24.0
1981-08-27 00:31:08.740 ,7,0,0.,24.0,0.,24.0
1981-08-27 00:31:32.740 ,6,1,0.,24.0,0.,24.0
1981-08-27 00:31:56.740 ,6,0,0.,24.0,0.,24.0
1981-08-27 00:32:20.740 ,5,1,0.,24.0,0.,24.0
1981-08-27 00:32:44.740 ,5,0,0.,24.0,0.,24.0
1981-08-27 00:33:08.740 ,4,1,0.,24.0,0.,24.0
1981-08-27 00:33:32.740 ,4,0,0.,24.0,0.,24.0
1981-08-27 00:33:56.740 ,3,1,0.,24.0,0.,24.0
1981-08-27 00:34:20.740 ,3,0,0.,24.0,0.,24.0
1981-08-27 00:34:44.740 ,2,1,0.,24.0,0.,24.0
1981-08-27 00:35:08.740 ,2,0,0.,24.0,0.,24.0
1981-08-27 00:35:32.740 ,1,1,0.,24.0,0.,24.0
1981-08-27 00:35:56.740 ,1,0,0.,24.0,0.,24.0
1981-08-27 00:36:20.740 ,0,1,0.,24.0,0.,24.0
1981-08-27 00:36:44.740 ,0,0,0.,24.0,0.,24.0
1981-08-27 00:37:08.740 ,0,1,0.,24.0,0.,24.0
1981-08-27 00:37:32.740 ,0,0,0.,24.0,0.,24.0
1981-08-27 00:37:56.740 ,1,1,0.,24.0,0.,24.0
1981-08-27 00:38:20.740 ,1,0,0.,24.0,0.,24.0
1981-08-27 00:38:44.740 ,2,1,0.,24.0,0.,24.0
1981-08-27 00:39:08.740 ,2,0,0.,24.0,0.,24.0
1981-08-27 00:39:32.740 ,3,1,0.,24.0,0.,24.0
1981-08-27 00:39:56.740 ,3,0,0.,24.0,0.,24.0
1981-08-27 00:40:20.740 ,4,1,0.,24.0,0.,24.0
1981-08-27 00:40:44.740 ,4,0,0.,24.0,0.,24.0
1981-08-27 00:41:08.740 ,5,1,0.,24.0,0.,24.0
1981-08-27 00:41:32.740 ,5,0,0.,24.0,0.,24.0
1981-08-27 00:41:56.740 ,6,1,0.,24.0,0.,24.0
1981-08-27 00:42:20.740 ,6,0,0.,24.0,0.,24.0
1981-08-27 00:42:44.740 ,7,1,0.,24.0,0.,24.0
1981-08-27 00:43:08.740 ,7,0,0.,24.0,0.,24.0
1981-08-27 00:43:32.730 ,7,1,0.,24.0,0.,24.0
1981-08-27 00:43:56.730 ,7,0,0.,24.0,0.,24.0
1981-08-27 00:44:20.730 ,6,1,0.,24.0,0.,24.0
1981-08-27 00:44:44.730 ,6,0,0.,24.0,0.,24.0
1981-08-27 00:45:08.730 ,5,1,0.,24.0,0.,24.0
1981-08-27 00:45:32.730 ,5,0,0.,24.0,0.,24.0
1981-08-27 00:45:56.730 ,4,1,0.,24.0,0.,24.0
1981-08-27 00:46:20.730 ,4,0,0.,24.0,0.,24.0
1981-08-27 00:46:44.730 ,3,1,0.,24.0,0.,24.0
1981-08-27 00:47:08.730 ,3,0,0.,24.0,0.,24.0
1981-08-27 00:47:32.730 ,2,1,0.,24.0,0.,24.0
1981-08-27 00:47:56.730 ,2,0,0.,24.0,0.,24.0
1981-08-27 00:48:20.730 ,1,1,0.,24.0,0.,24.0
1981-08-27 00:48:44.730 ,1,0,0.,24.0,0.,24.0
1981-08-27 00:49:08.730 ,0,1,0.,24.0,0.,24.0
1981-08-27 00:49:32.730 ,0,0,0.,24.0,0.,24.0
1981-08-27 00:49:56.730 ,0,1,0.,24.0,0.,24.0
1981-08-27 00:50:20.730 ,0,0,0.,24.0,0.,24.0
1981-08-27 00:50:44.730 ,1,1,0.,24.0,0.,24.0
1981-08-27 00:51:08.730 ,1,0,0.,24.0,0.,24.0
1981-08-27 00:51:32.730 ,2,1,0.,24.0,0.,24.0
1981-08-27 00:51:56.730 ,2,0,0.,24.0,0.,24.0
1981-08-27 00:52:20.730 ,3,1,0.,24.0,0.,24.0
1981-08-27 00:52:44.730 ,3,0,0.,24.0,0.,24.0
1981-08-27 00:53:08.730 ,4,1,0.,24.0,0.,24.0
1981-08-27 00:53:32.730 ,4,0,0.,24.0,0.,24.0
1981-08-27 00:53:56.730 ,5,1,0.,24.0,0.,24.0
1981-08-27 00:54:20.730 ,5,0,0.,24.0,0.,24.0
1981-08-27 00:54:44.730 ,6,1,0.,24.0,0.,24.0
1981-08-27 00:55:08.730 ,6,0,0.,24.0,0.,24.0
1981-08-27 00:55:32.730 ,7,1,0.,24.0,0.,24.0
1981-08-27 00:55:56.730 ,7,0,0.,24.0,0.,24.0
1981-08-27 00:56:20.730 ,7,1,0.,24.0,0.,24.0
1981-08-27 00:56:44.730 ,7,0,0.,24.0,0.,24.0
1981-08-27 00:57:08.730 ,6,1,0.,24.0,0.,24.0
1981-08-27 00:57:32.730 ,6,0,0.,24.0,0.,24.0
1981-08-27 00:57:56.730 ,5,1,0.,24.0,0.,24.0
1981-08-27 00:58:20.730 ,5,0,0.,24.0,0.,24.0
1981-08-27 00:58:44.730 ,4,1,0.,24.0,0.,24.0
1981-08-27 00:59:08.730 ,4,0,0.,24.0,0.,24.0
1981-08-27 00:59:32.730 ,3,1,0.,24.0,0.,24.0
1981-08-27 00:59:56.730 ,3,0,0.,24.0,0.,24.0
1981-08-27 01:00:20.730 ,2,1,0.,24.0,0.,24.0
1981-08-27 01:00:44.730 ,2,0,0.,24.0,0.,24.0
1981-08-27 01:01:08.730 ,1,1,0.,24.0,0.,24.0
1981-08-27 01:01:32.730 ,1,0,0.,24.0,0.,24.0
1981-08-27 01:01:56.730 ,0,1,0.,24.0,0.,24.0
1981-08-27 01:02:20.730 ,0,0,0.,24.0,0.,24.0
1981-08-27 01:02:44.730 ,0,1,0.,24.0,0.,24.0
1981-08-27 01:03:08.730 ,0,0,0.,24.0,0.,24.0
1981-08-27 01:03:32.730 ,1,1,0.,24.0,0.,24.0
1981-08-27 01:03:56.730 ,1,0,0.,24.0,0.,24.0
1981-08-27 01:04:20.730 ,2,1,0.,24.0,0.,24.0
1981-08-27 01:04:44.730 ,2,0,0.,24.0,0.,24.0
1981-08-27 01:05:08.730 ,3,1,0.,24.0,0.,24.0
1981-08-27 01:05:32.730 ,3,0,0.,24.0,0.,24.0
1981-08-27 01:05:56.730 ,4,1,0.,24.0,0.,24.0
1981-08-27 01:06:20.730 ,4,0,0.,24.0,0.,24.0
1981-08-27 01:06:44.730 ,5,1,0.,24.0,0.,24.0
1981-08-27 01:07:08.730 ,5,0,0.,24.0,0.,24.0
1981-08-27 01:07:32.730 ,6,1,0.,24.0,0.,24.0
1981-08-27 01:07:56.730 ,0,0,,0,,0
1981-08-27 01:08:20.730 ,7,1,0.,24.0,0.,24.0
1981-08-27 01:08:44.730 ,7,0,0.,24.0,0.,24.0
1981-08-27 01:09:08.730 ,7,1,0.,24.0,0.,24.0
1981-08-27 01:09:32.730 ,7,0,0.,24.0,0.,24.0
1981-08-27 01:09:56.730 ,6,1,0.,24.0,0.,24.0
1981-08-27 01:10:20.730 ,6,0,0.,24.0,0.,24.0
1981-08-27 01:10:44.730 ,5,1,0.,24.0,0.,24.0
1981-08-27 01:11:08.730 ,5,0,0.,24.0,0.,24.0
1981-08-27 01:11:32.730 ,4,1,0.,24.0,0.,24.0
1981-08-27 01:11:56.730 ,4,0,0.,24.0,0.,24.0
1981-08-27 01:12:20.730 ,3,1,0.,24.0,0.,24.0
1981-08-27 01:12:44.730 ,3,0,0.,24.0,0.,24.0
1981-08-27 01:13:08.730 ,2,1,0.,24.0,0.,24.0
1981-08-27 01:13:32.730 ,2,0,0.,24.0,0.,24.0
1981-08-27 01:13:56.730 ,1,1,0.,24.0,0.,24.0
1981-08-27 01:14:20.730 ,1,0,0.,24.0,0.,24.0
1981-08-27 01:14:44.730 ,0,1,0.,24.0,0.,24.0
1981-08-27 01:15:08.730 ,0,0,0.,24.0,0.,24.0
1981-08-27 01:15:32.730 ,0,1,0.,24.0,0.,24.0
1981-08-27 01:15:56.730 ,0,0,0.,24.0,0.,24.0
1981-08-27 01:16:20.730 ,1,1,0.,24.0,0.,24.0
1981-08-27 01:16:44.730 ,1,0,0.,24.0,0.,24.0
1981-08-27 01:17:08.730 ,2,1,0.,24.0,0.,24.0
1981-08-27 01:17:32.730 ,2,0,0.,24.0,0.,24.0
1981-08-27 01:17:56.730 ,3,1,0.,24.0,0.,24.0
1981-08-27 01:18:20.730 ,3,0,0.,24.0,0.,24.0
1981-08-27 01:18:44.730 ,4,1,0.,24.0,0.,24.0
1981-08-27 01:19:08.730 ,4,0,0.,24.0,0.,24.0
1981-08-27 01:19:32.730 ,5,1,0.,24.0,0.,24.0
1981-08-27 01:19:56.730 ,5,0,0.,24.0,0.,24.0
1981-08-27 01:20:20.730 ,6,1,0.,24.0,0.,24.0
1981-08-27 01:20:44.730 ,6,0,0.,24.0,0.,24.0
1981-08-27 01:21:08.730 ,7,1,0.,24.0,0.,24.0
1981-08-27 01:21:32.730 ,7,0,0.,24.0,0.,24.0
1981-08-27 01:21:56.730 ,7,1,0.,24.0,0.,24.0
1981-08-27 01:22:20.730 ,7,0,0.,24.0,0.,24.0
1981-08-27 01:22:44.730 ,6,1,0.,24.0,0.,24.0
1981-08-27 01:23:08.730 ,6,0,0.,24.0,0.,24.0
1981-08-27 01:23:32.730 ,5,1,0.,24.0,0.,24.0
1981-08-27 01:23:56.730 ,5,0,0.,24.0,0.,24.0
1981-08-27 01:24:20.730 ,4,1,0.,24.0,0.,24.0
1981-08-27 01:24:44.730 ,4,0,0.,24.0,0.,24.0
1981-08-27 01:25:08.730 ,3,1,0.,24.0,0.,24.0
1981-08-27 01:25:32.730 ,3,0,0.,24.0,0.,24.0
1981-08-27 01:25:56.730 ,2,1,0.,24.0,0.,24.0
1981-08-27 01:26:20.730 ,2,0,0.,24.0,0.,24.0
1981-08-27 01:26:44.730 ,1,1,0.,24.0,0.,24.0
1981-08-27 01:27:08.730 ,1,0,0.,24.0,0.,24.0
1981-08-27 01:27:32.730 ,0,1,0.,24.0,0.,24.0
1981-08-27 01:27:56.730 ,0,0,0.,24.0,0.,24.0
1981-08-27 01:28:20.730 ,0,1,0.,24.0,0.,24.0
1981-08-27 01:28:44.730 ,0,0,0.,24.0,0.,24.0
1981-08-27 01:29:08.730 ,1,1,0.,24.0,0.,24.0
1981-08-27 01:29:32.730 ,1,0,0.,24.0,0.,24.0
1981-08-27 01:29:56.730 ,2,1,0.,24.0,0.,24.0
1981-08-27 01:30:20.730 ,2,0,0.,24.0,0.,24.0
1981-08-27 01:30:44.730 ,3,1,0.,24.0,0.,24.0
1981-08-27 01:31:08.730 ,3,0,0.,24.0,0.,24.0
1981-08-27 01:31:32.730 ,4,1,0.,24.0,0.,24.0
1981-08-27 01:31:56.730 ,4,0,0.,24.0,0.,24.0
1981-08-27 01:32:20.730 ,5,1,0.,24.0,0.,24.0
1981-08-27 01:32:44.730 ,5,0,0.,24.0,0.,24.0
1981-08-27 01:33:08.730 ,6,1,0.,24.0,0.,24.0
1981-08-27 01:33:32.730 ,6,0,0.,24.0,0.,24.0
1981-08-27 01:34:44.730 ,0,0,0.,24.0,0.,24.0
1981-08-27 01:35:08.730 ,0,0,0.,24.0,0.,24.0
1981-08-27 01:35:32.730 ,6,1,0.,24.0,0.,24.0
1981-08-27 01:35:56.730 ,6,0,0.,24.0,0.,24.0
1981-08-27 01:36:20.730 ,5,1,0.,24.0,0.,24.0
1981-08-27 01:36:44.730 ,5,0,0.,24.0,0.,24.0
1981-08-27 01:37:08.730 ,4,1,0.,24.0,0.,24.0
1981-08-27 01:37:32.730 ,4,0,0.,24.0,0.,24.0
1981-08-27 01:37:56.730 ,3,1,0.,24.0,0.,24.0
1981-08-27 01:38:20.730 ,3,0,0.,24.0,0.,24.0
1981-08-27 01:38:44.730 ,2,1,0.,24.0,0.,24.0
1981-08-27 01:39:08.730 ,2,0,0.,24.0,0.,24.0
1981-08-27 01:39:32.730 ,1,1,0.,24.0,0.,24.0
1981-08-27 01:39:56.730 ,1,0,0.,24.0,0.,24.0
1981-08-27 01:40:20.730 ,0,1,0.,24.0,0.,24.0
1981-08-27 01:40:44.730 ,0,0,0.,24.0,0.,24.0
1981-08-27 01:41:08.730 ,0,1,0.,24.0,0.,24.0
1981-08-27 01:41:32.730 ,0,0,0.,24.0,0.,24.0
1981-08-27 01:41:56.730 ,1,1,0.,24.0,0.,24.0
1981-08-27 01:42:20.730 ,1,0,0.,24.0,0.,24.0
1981-08-27 01:42:44.730 ,2,1,0.,24.0,0.,24.0
1981-08-27 01:43:08.730 ,2,0,0.,24.0,0.,24.0
1981-08-27 01:43:32.730 ,3,1,0.,24.0,0.,24.0
1981-08-27 01:43:56.730 ,3,0,0.,24.0,0.,24.0
1981-08-27 01:44:20.730 ,4,1,0.,24.0,0.,24.0
1981-08-27 01:44:44.730 ,4,0,0.,24.0,0.,24.0
1981-08-27 01:45:08.730 ,5,1,0.,24.0,0.,24.0
1981-08-27 01:45:32.730 ,5,0,0.,24.0,0.,24.0
1981-08-27 01:45:56.730 ,6,1,0.,24.0,0.,24.0
1981-08-27 01:46:20.730 ,6,0,0.,24.0,0.,24.0
1981-08-27 01:46:44.730 ,7,1,0.,24.0,0.,24.0
1981-08-27 01:47:08.730 ,7,0,0.,24.0,0.,24.0
1981-08-27 01:47:32.730 ,7,1,0.,24.0,0.,24.0
1981-08-27 01:47:56.730 ,7,0,0.,24.0,0.,24.0
1981-08-27 01:48:20.730 ,6,1,0.,24.0,0.,24.0
1981-08-27 01:48:44.730 ,6,0,0.,24.0,0.,24.0
1981-08-27 01:49:08.730 ,5,1,0.,24.0,0.,24.0
1981-08-27 01:49:32.730 ,5,0,0.,24.0,0.,24.0
1981-08-27 01:49:56.730 ,4,1,0.,24.0,0.,24.0
1981-08-27 01:50:20.730 ,4,0,0.,24.0,0.,24.0
1981-08-27 01:50:44.730 ,3,1,0.,24.0,0.,24.0
1981-08-27 01:51:08.730 ,3,0,0.,24.0,0.,24.0
1981-08-27 01:51:32.730 ,2,1,0.,24.0,0.,24.0
1981-08-27 01:51:56.730 ,2,0,0.,24.0,0.,24.0
1981-08-27 01:52:20.730 ,1,1,0.,24.0,0.,24.0
1981-08-27 01:52:44.730 ,1,0,0.,24.0,0.,24.0
1981-08-27 01:53:08.730 ,0,1,0.,24.0,0.,24.0
1981-08-27 01:53:32.730 ,0,0,0.,24.0,0.,24.0
1981-08-27 01:53:56.730 ,0,1,0.,24.0,0.,24.0
1981-08-27 01:54:20.730 ,0,0,0.,24.0,0.,24.0
1981-08-27 01:54:44.730 ,1,1,0.,24.0,0.,24.0
1981-08-27 01:55:08.730 ,1,0,0.,24.0,0.,24.0
1981-08-27 01:55:32.730 ,2,1,0.,24.0,0.,24.0
1981-08-27 01:55:56.730 ,2,0,0.,24.0,0.,24.0
1981-08-27 01:56:20.730 ,3,1,0.,24.0,0.,24.0
1981-08-27 01:56:44.730 ,3,0,0.,24.0,0.,24.0
1981-08-27 01:57:08.730 ,4,1,0.,24.0,0.,24.0
1981-08-27 01:57:32.730 ,4,0,0.,24.0,0.,24.0
1981-08-27 01:57:56.730 ,5,1,0.,24.0,0.,24.0
1981-08-27 01:58:20.730 ,5,0,0.,24.0,0.,24.0
1981-08-27 01:58:44.730 ,6,1,0.,24.0,0.,24.0
1981-08-27 01:59:08.730 ,6,0,0.,24.0,0.,24.0
1981-08-27 01:59:32.730 ,7,1,0.,24.0,0.,24.0
1981-08-27 01:59:56.730 ,7,0,0.,24.0,0.,24.0
1981-08-27 02:00:20.730 ,7,1,0.,24.0,0.,24.0
1981-08-27 02:00:44.730 ,7,0,0.,24.0,0.,24.0
1981-08-27 02:01:08.730 ,6,1,0.,24.0,0.,24.0
1981-08-27 02:01:32.730 ,6,0,0.,24.0,0.,24.0
1981-08-27 02:01:56.730 ,5,1,0.,24.0,0.,24.0
1981-08-27 02:02:20.730 ,5,0,0.,24.0,0.,24.0
1981-08-27 02:02:44.730 ,4,1,0.,24.0,0.,24.0
1981-08-27 02:03:08.730 ,4,0,0.,24.0,0.,24.0
1981-08-27 02:03:32.730 ,3,1,0.,24.0,0.,24.0
1981-08-27 02:03:56.730 ,3,0,0.,24.0,0.,24.0
1981-08-27 02:04:20.730 ,2,1,0.,24.0,0.,24.0
1981-08-27 02:04:44.730 ,2,0,0.,24.0,0.,24.0
1981-08-27 02:05:08.730 ,1,1,0.,24.0,0.,24.0
1981-08-27 02:05:32.730 ,1,0,0.,24.0,0.,24.0
1981-08-27 02:05:56.730 ,0,1,0.,24.0,0.,24.0
1981-08-27 02:06:20.730 ,0,0,0.,24.0,0.,24.0
1981-08-27 02:06:44.730 ,0,1,0.,24.0,0.,24.0
1981-08-27 02:07:08.730 ,0,0,0.,24.0,0.,24.0
1981-08-27 02:07:32.730 ,1,1,0.,24.0,0.,24.0
1981-08-27 02:07:56.730 ,1,0,0.,24.0,0.,24.0
1981-08-27 02:08:20.730 ,2,1,0.,24.0,0.,24.0
1981-08-27 02:08:44.730 ,2,0,0.,24.0,0.,24.0
1981-08-27 02:09:08.730 ,3,1,0.,24.0,0.,24.0
1981-08-27 02:09:32.730 ,0,0,0.,24.0,0.,24.0
1981-08-27 02:12:06.930 ,0,0,0.,24.0,0.,24.0
1981-08-27 02:12:20.730 ,7,1,0.,24.0,0.,24.0
1981-08-27 02:12:44.730 ,7,0,0.,24.0,0.,24.0
1981-08-27 02:13:08.730 ,7,1,0.,24.0,0.,24.0
1981-08-27 02:13:32.730 ,7,0,0.,24.0,0.,24.0
1981-08-27 02:13:56.730 ,6,1,0.,24.0,0.,24.0
1981-08-27 02:14:20.730 ,6,0,0.,24.0,0.,24.0
1981-08-27 02:14:44.730 ,5,1,0.,24.0,0.,24.0
1981-08-27 02:15:08.730 ,5,0,0.,24.0,0.,24.0
1981-08-27 02:15:32.730 ,4,1,0.,24.0,0.,24.0
1981-08-27 02:15:56.730 ,4,0,0.,24.0,0.,24.0
1981-08-27 02:16:20.730 ,3,1,0.,24.0,0.,24.0
1981-08-27 02:16:44.730 ,3,0,0.,24.0,0.,24.0
1981-08-27 02:17:08.730 ,2,1,0.,24.0,0.,24.0
1981-08-27 02:17:32.730 ,2,0,0.,24.0,0.,24.0
1981-08-27 02:17:56.730 ,1,1,0.,24.0,0.,24.0
1981-08-27 02:18:20.730 ,1,0,0.,24.0,0.,24.0
1981-08-27 02:18:44.730 ,0,1,0.,24.0,0.,24.0
1981-08-27 02:19:08.730 ,0,0,0.,24.0,0.,24.0
1981-08-27 02:19:32.730 ,0,1,0.,24.0,0.,24.0
1981-08-27 02:19:56.730 ,0,0,0.,24.0,0.,24.0
1981-08-27 02:20:20.730 ,1,1,0.,24.0,0.,24.0
1981-08-27 02:20:44.730 ,1,0,0.,24.0,0.,24.0
1981-08-27 02:21:08.730 ,2,1,0.,24.0,0.,24.0
1981-08-27 02:21:32.730 ,2,0,0.,24.0,0.,24.0
1981-08-27 02:21:56.730 ,3,1,0.,24.0,0.,24.0
1981-08-27 02:22:20.730 ,3,0,0.,24.0,0.,24.0
1981-08-27 02:22:44.730 ,4,1,0.,24.0,0.,24.0
1981-08-27 02:23:08.730 ,4,0,0.,24.0,0.,24.0
1981-08-27 02:23:32.730 ,5,1,0.,24.0,0.,24.0
1981-08-27 02:23:56.730 ,5,0,0.,24.0,0.,24.0
1981-08-27 02:24:20.730 ,6,1,0.,24.0,0.,24.0
1981-08-27 02:24:44.730 ,6,0,0.,24.0,0.,24.0
1981-08-27 02:25:08.730 ,7,1,0.,24.0,0.,24.0
1981-08-27 02:25:32.730 ,7,0,0.,24.0,0.,24.0
1981-08-27 02:25:56.730 ,7,1,0.,24.0,0.,24.0
1981-08-27 02:26:20.730 ,7,0,0.,24.0,0.,24.0
1981-08-27 02:26:44.730 ,6,1,0.,24.0,0.,24.0
1981-08-27 02:27:08.730 ,6,0,0.,24.0,0.,24.0
1981-08-27 02:27:32.730 ,5,1,0.,24.0,0.,24.0
1981-08-27 02:27:56.730 ,5,0,0.,24.0,0.,24.0
1981-08-27 02:28:20.730 ,4,1,0.,24.0,0.,24.0
1981-08-27 02:28:44.730 ,4,0,0.,24.0,0.,24.0
1981-08-27 02:29:08.730 ,3,1,0.,24.0,0.,24.0
1981-08-27 02:29:32.730 ,3,0,0.,24.0,0.,24.0
1981-08-27 02:29:56.730 ,2,1,0.,24.0,0.,24.0
1981-08-27 02:30:20.730 ,2,0,0.,24.0,0.,24.0
1981-08-27 02:30:44.730 ,1,1,0.,24.0,0.,24.0
1981-08-27 02:31:08.730 ,1,0,0.,24.0,0.,24.0
1981-08-27 02:31:32.730 ,0,1,0.,24.0,0.,24.0
1981-08-27 02:31:56.730 ,0,0,0.,24.0,0.,24.0
1981-08-27 02:32:20.730 ,0,1,0.,24.0,0.,24.0
1981-08-27 02:32:44.730 ,0,0,0.,24.0,0.,24.0
1981-08-27 02:33:08.730 ,1,1,0.,24.0,0.,24.0
1981-08-27 02:33:32.730 ,1,0,0.,24.0,0.,24.0
1981-08-27 02:33:56.730 ,2,1,0.,24.0,0.,24.0
1981-08-27 02:34:20.730 ,2,0,0.,24.0,0.,24.0
1981-08-27 02:34:44.730 ,3,1,0.,24.0,0.,24.0
1981-08-27 02:35:08.730 ,3,0,0.,24.0,0.,24.0
1981-08-27 02:35:32.730 ,4,1,0.,24.0,0.,24.0
1981-08-27 02:35:56.730 ,4,0,0.,24.0,0.,24.0
1981-08-27 02:36:20.730 ,5,1,0.,24.0,0.,24.0
1981-08-27 02:36:44.730 ,5,0,0.,24.0,0.,24.0
1981-08-27 02:37:08.730 ,6,1,0.,24.0,0.,24.0
1981-08-27 02:37:32.730 ,6,0,0.,24.0,0.,24.0
1981-08-27 02:37:56.730 ,7,1,0.,24.0,0.,24.0
1981-08-27 02:38:20.730 ,7,0,0.,24.0,0.,24.0
1981-08-27 02:38:44.730 ,7,1,0.,24.0,0.,24.0
1981-08-27 02:39:08.730 ,7,0,0.,24.0,0.,24.0
1981-08-27 02:39:32.730 ,6,1,0.,24.0,0.,24.0
1981-08-27 02:39:56.730 ,6,0,0.,24.0,0.,24.0
1981-08-27 02:40:20.730 ,5,1,0.,24.0,0.,24.0
1981-08-27 02:40:44.730 ,5,0,0.,24.0,0.,24.0
1981-08-27 02:41:08.730 ,4,1,0.,24.0,0.,24.0
1981-08-27 02:41:32.730 ,4,0,0.,24.0,0.,24.0
1981-08-27 02:41:56.730 ,3,1,0.,24.0,0.,24.0
1981-08-27 02:42:20.730 ,3,0,0.,24.0,0.,24.0
1981-08-27 02:42:44.730 ,2,1,0.,24.0,0.,24.0
1981-08-27 02:43:08.730 ,2,0,0.,24.0,0.,24.0
1981-08-27 02:43:32.730 ,0,0,0.,24.0,0.,24.0
1981-08-27 02:43:56.730 ,0,0,,0,,0
1981-08-27 02:44:20.730 ,0,0,0.,24.0,0.,24.0
1981-08-27 02:44:44.730 ,0,0,0.,24.0,0.,24.0
1981-08-27 02:45:08.730 ,0,1,0.,24.0,0.,24.0
1981-08-27 02:45:32.730 ,0,0,0.,24.0,0.,24.0
1981-08-27 02:45:56.730 ,1,1,0.,24.0,0.,24.0
1981-08-27 02:46:20.730 ,1,0,0.,24.0,0.,24.0
1981-08-27 02:46:44.730 ,2,1,0.,24.0,0.,24.0
1981-08-27 02:47:08.730 ,2,0,0.,24.0,0.,24.0
1981-08-27 02:47:32.730 ,3,1,0.,24.0,0.,24.0
1981-08-27 02:47:56.730 ,3,0,0.,24.0,0.,24.0
1981-08-27 02:48:20.730 ,4,1,0.,24.0,0.,24.0
1981-08-27 02:48:44.730 ,4,0,0.,24.0,0.,24.0
1981-08-27 02:49:08.730 ,5,1,0.,24.0,0.,24.0
1981-08-27 02:49:32.730 ,5,0,0.,24.0,0.,24.0
1981-08-27 02:49:56.730 ,6,1,0.,24.0,0.,24.0
1981-08-27 02:50:20.730 ,6,0,0.,24.0,0.,24.0
1981-08-27 02:50:44.730 ,7,1,0.,24.0,0.,24.0
1981-08-27 02:51:08.730 ,7,0,0.,24.0,0.,24.0
1981-08-27 02:51:32.730 ,7,1,0.,24.0,0.,24.0
1981-08-27 02:51:56.730 ,7,0,0.,24.0,0.,24.0
1981-08-27 02:52:20.730 ,6,1,0.,24.0,0.,24.0
1981-08-27 02:52:44.730 ,6,0,0.,24.0,0.,24.0
1981-08-27 02:53:08.730 ,5,1,0.,24.0,0.,24.0
1981-08-27 02:53:32.730 ,5,0,0.,24.0,0.,24.0
1981-08-27 02:53:56.730 ,4,1,0.,24.0,0.,24.0
1981-08-27 02:54:20.730 ,4,0,0.,24.0,0.,24.0
1981-08-27 02:54:44.730 ,3,1,0.,24.0,0.,24.0
1981-08-27 02:55:08.730 ,3,0,0.,24.0,0.,24.0
1981-08-27 02:55:32.730 ,2,1,0.,24.0,0.,24.0
1981-08-27 02:55:56.730 ,2,0,0.,24.0,0.,24.0
1981-08-27 02:56:20.730 ,1,1,0.,24.0,0.,24.0
1981-08-27 02:56:44.730 ,1,0,0.,24.0,0.,24.0
1981-08-27 02:57:08.730 ,0,1,0.,24.0,0.,24.0
1981-08-27 02:57:32.730 ,0,0,0.,24.0,0.,24.0
1981-08-27 02:57:56.730 ,0,1,0.,24.0,0.,24.0
1981-08-27 02:58:20.730 ,0,0,0.,24.0,0.,24.0
1981-08-27 02:58:44.730 ,1,1,0.,24.0,0.,24.0
1981-08-27 02:59:08.730 ,1,0,0.,24.0,0.,24.0
1981-08-27 02:59:32.730 ,2,1,0.,24.0,0.,24.0
1981-08-27 02:59:56.730 ,2,0,0.,24.0,0.,24.0
1981-08-27 03:00:20.730 ,3,1,0.,24.0,0.,24.0
